Volver al catálogo

CICERO-3

ActivoComunicacionesSSO
NORAD 42849·PAYLOAD·🇳🇴 Norway
Este nombre de satélite aún no ha sido confirmado por fuentes oficiales.

Lanzado Jul 14, 2017 desde Baikonur Cosmodrome

Loading…

Próximos Pases (próximas 24 horas)

TLE

ActualizadoSource: Space-Track

Época: Sep 14, 2026, 10:14 UTC

1 42849U 17042AA  26257.42697749  .00002417  00000-0  15979-3 0  9999
2 42849  97.4346  60.2158 0011446 150.2903 209.8978 15.08254743500669

Sigue CICERO-3 en tiempo real con AllMySat

Download on the App Store